Probability
0 1 4 7 7 8 7 5 4 6 6 5 4 2 1 0 0 0 0 0 0 0 0 0 0 0 0 0 0 0 0 0 0 0 0 0 0 0 0 0 0 0 0
0 2 6 9 10 11 10 8 7 8 8 6 4 2 1 0 0 0 0 0 0 0 0 0 0 0 0 0 0 0 0 0 0 0 0 0 0 0 0 0 0 0 0
1 3 7 11 14 14 13 11 10 9 8 6 4 3 1 1 1 0 0 0 0 0 0 0 0 0 0 0 0 0 0 0 0 0 0 0 0 0 0 0 0 0 0
3 4 9 15 18 18 16 14 11 9 7 6 5 3 2 2 1 0 0 0 0 0 0 0 0 0 0 0 0 0 0 0 0 0 0 0 0 0 0 0 0 0 0
5 7 12 19 22 21 20 17 13 8 7 6 5 4 2 1 1 0 0 0 0 0 0 0 0 0 0 0 0 0 0 0 0 0 0 0 0 0 0 0 0 0 0
6 9 15 20 22 22 21 19 14 9 7 7 6 4 3 2 2 1 1 1 0 0 0 0 0 0 0 0 0 0 0 0 0 0 0 0 0 0 0 0 0 0 0
9 10 14 19 20 20 20 18 15 11 9 8 7 6 6 5 5 3 2 1 0 0 0 0 0 0 0 0 0 0 0 0 0 0 0 0 0 0 0 0 0 0 0
11 10 12 16 18 19 19 19 17 14 12 11 9 8 7 6 5 3 1 1 0 0 0 0 0 0 0 0 0 0 0 0 0 0 0 0 0 0 0 0 0 0 0
11 10 10 12 15 15 15 16 15 13 11 10 8 7 6 5 3 1 0 0 0 0 0 0 0 0 0 0 0 0 0 0 0 0 0 0 0 0 0 0 0 0 1
9 8 8 9 10 10 9 9 9 7 6 6 5 4 4 3 1 0 0 0 0 0 0 0 0 0 0 0 0 0 0 0 0 0 0 0 0 0 0 0 0 0 1
6 6 5 6 6 6 5 4 3 3 3 3 3 2 2 1 0 0 0 0 0 0 0 0 0 0 0 0 0 0 0 0 0 0 0 0 0 0 0 0 0 0 1
3 3 3 3 4 4 3 3 2 3 3 3 1 1 1 0 0 0 0 0 0 0 0 0 0 0 0 0 0 0 0 0 0 0 0 0 0 0 0 0 0 0 0
1 1 1 1 2 3 3 3 3 3 3 2 1 0 0 0 0 0 0 0 0 0 0 0 0 0 0 0 0 0 0 0 0 0 0 0 0 0 0 0 0 0 1
1 0 0 1 2 3 3 3 3 2 2 2 1 0 0 0 0 0 0 0 0 0 0 0 0 0 0 0 0 0 0 0 0 0 0 0 0 0 0 0 0 0 1
1 1 1 2 2 3 3 3 2 1 1 1 0 0 0 0 0 0 0 0 0 0 0 0 0 0 0 0 0 0 0 0 0 0 0 0 0 0 0 0 0 0 1
1 1 2 3 4 4 4 3 2 1 0 0 0 0 0 0 0 0 0 0 0 0 0 0 0 0 0 0 0 0 0 0 0 0 0 0 0 0 0 0 0 0 0
0 1 2 3 4 5 4 3 1 0 0 0 0 0 0 0 0 0 0 0 0 0 0 0 0 0 0 0 0 0 0 0 0 0 0 0 0 0 0 0 0 0 0
0 1 2 2 4 5 4 3 1 1 0 0 0 0 0 0 0 0 0 0 0 0 0 0 0 0 0 0 0 0 0 0 0 0 0 0 0 0 0 0 0 1 1
0 0 1 2 4 5 5 4 3 2 1 1 0 0 0 0 0 0 0 0 0 0 0 0 0 0 0 0 0 0 0 0 0 0 0 0 0 0 0 0 0 0 0
0 0 1 2 4 6 7 6 4 3 3 2 1 1 0 0 0 0 0 0 0 0 0 0 0 0 0 0 0 0 0 0 0 0 0 0 0 0 0 0 0 0 0
0 0 0 1 4 7 9 9 7 5 3 3 3 2 1 0 0 0 0 0 0 0 0 0 0 0 0 0 0 0 0 0 0 0 0 0 0 0 0 0 0 0 0
0 0 0 1 2 5 7 9 9 6 4 4 3 3 2 1 1 0 0 0 0 0 0 0 0 0 0 0 0 0 0 0 0 0 0 0 0 0 0 0 0 0 0
0 0 0 0 1 2 4 6 8 7 6 5 4 3 3 3 2 1 0 0 0 0 0 0 0 0 0 0 0 0 0 0 0 0 0 0 0 0 0 0 0 0 0
0 0 0 0 0 1 1 3 5 6 6 5 4 3 3 3 3 2 1 0 0 0 0 0 0 0 0 0 0 0 0 0 0 0 0 0 0 0 0 0 0 0 0
0 0 0 0 0 0 0 2 4 4 4 4 3 3 3 3 3 2 1 0 0 0 0 0 0 0 0 0 0 0 0 0 0 0 0 0 0 0 0 0 0 0 0
0 0 0 0 0 0 1 2 3 3 3 3 3 3 3 3 3 2 1 0 0 0 0 0 0 0 0 0 0 0 0 0 0 0 0 0 0 0 0 0 0 0 0
Wind_Speed
5 7 12 13 13 13 13 13 13 13 13 13 13 13 13 13 12 12 11 11 11 11 11 11 11 11 11 10 10 10 10 10 10 10 9 9 9 10 10 9 7 5 8
9 9 13 13 14 14 13 13 13 12 12 13 13 12 12 12 11 11 11 11 10 10 10 10 10 10 10 10 10 10 10 9 9 8 8 7 8 9 9 8 7 5 7
11 9 11 13 14 14 14 13 13 12 12 12 12 12 11 11 11 10 10 10 10 10 10 9 9 9 9 9 9 9 9 9 8 8 6 3 4 7 8 7 7 7 7
12 9 10 13 13 14 14 13 13 12 12 12 12 11 11 10 10 10 10 10 10 9 9 9 9 8 8 8 8 8 8 8 8 6 4 3 2 5 6 7 6 7 6
10 8 10 14 14 14 14 13 13 12 12 12 11 11 10 10 10 10 9 9 9 9 8 8 8 7 7 7 7 7 7 7 7 5 3 3 2 4 6 5 5 5 5
9 7 10 14 14 14 13 13 13 12 12 11 11 10 10 9 9 9 9 9 8 8 8 7 7 7 6 6 6 6 6 7 6 3 3 2 2 4 5 5 5 5 4
9 7 9 13 14 14 13 12 12 12 11 11 10 10 9 9 9 8 8 8 7 7 7 7 6 6 6 6 5 6 6 6 4 3 2 2 2 4 4 4 3 3 3
10 8 8 13 13 13 13 12 12 11 11 10 10 9 9 9 8 8 7 7 7 6 6 6 6 5 5 5 5 5 6 5 4 3 1 1 1 2 3 3 3 2 2
9 8 6 7 9 11 12 11 11 10 10 9 9 9 8 8 7 7 6 6 6 6 6 5 5 4 4 4 4 4 4 5 3 1 1 0 1 2 2 3 2 2 2
7 7 6 5 6 6 7 10 10 10 9 9 8 8 7 7 6 6 5 5 5 5 5 5 4 4 4 3 3 3 3 3 2 1 0 1 0 1 1 1 1 2 2
7 6 6 6 5 5 5 7 8 8 8 7 6 7 6 3 3 3 4 4 4 4 4 4 3 3 2 2 3 3 2 1 0 0 1 1 1 1 0 1 1 1 2
8 7 6 7 6 5 5 4 3 3 4 3 3 4 3 3 2 2 3 4 4 3 3 2 2 2 2 1 2 2 1 1 0 1 1 2 2 2 1 1 2 2 3
8 8 7 7 7 6 4 4 2 2 2 3 3 4 3 2 2 1 1 1 1 1 1 1 1 1 1 0 1 1 1 1 1 1 2 3 2 3 2 2 2 3 3
7 8 8 8 7 6 5 4 3 3 2 2 3 4 3 2 2 2 1 1 1 1 1 1 1 1 1 1 1 1 1 1 1 1 1 2 2 3 4 4 4 4 4
7 7 8 8 8 7 5 4 4 4 4 3 3 3 4 3 3 2 1 1 1 1 1 1 1 1 1 1 1 1 1 1 1 1 1 2 2 4 5 5 5 5 5
7 7 7 8 8 7 6 5 4 4 4 3 3 3 4 4 3 3 2 1 1 1 1 1 1 1 0 1 1 2 1 1 1 1 1 2 3 4 5 6 6 7 7
7 7 7 8 7 7 7 6 4 4 4 3 3 3 4 4 4 3 2 2 1 1 1 1 1 1 1 1 1 2 1 1 1 1 1 1 2 3 5 6 7 8 8
7 7 7 7 7 7 6 5 4 4 4 3 3 3 4 4 4 3 3 2 2 2 1 1 1 1 1 1 1 2 1 1 1 1 1 1 1 2 3 6 7 8 8
8 7 6 6 7 7 6 5 4 4 3 3 3 3 3 4 4 4 3 2 2 2 1 1 1 1 1 1 1 1 1 1 1 1 1 1 1 1 2 4 6 7 8
7 7 7 7 6 6 4 4 3 3 2 2 3 3 4 4 4 4 3 2 3 2 1 1 2 1 1 1 1 2 2 2 1 1 1 1 1 2 2 2 3 4 8
5 6 7 7 7 6 5 4 4 4 3 2 2 3 4 4 4 4 3 2 2 2 2 2 2 2 1 1 2 2 3 3 2 1 1 1 2 2 2 2 2 2 4
6 7 7 8 7 7 6 5 4 4 3 3 2 2 3 4 4 4 4 3 3 2 2 2 2 1 1 1 2 1 2 3 3 2 2 1 2 2 2 3 3 2 3
7 7 7 8 8 7 6 4 4 3 2 1 1 2 2 3 4 4 4 4 3 3 3 2 2 3 1 1 1 2 1 2 3 3 2 2 2 2 2 3 3 3 3
7 6 6 7 7 7 7 7 7 5 4 4 3 3 2 3 3 3 4 4 4 3 3 2 2 2 3 1 0 0 1 2 1 3 3 2 3 3 3 3 3 3 3
6 5 5 6 6 6 6 8 7 5 4 3 3 3 2 2 3 3 4 4 3 3 3 3 2 2 2 2 1 1 0 0 1 2 4 4 3 3 3 3 3 3 3
4 5 5 6 5 6 6 7 7 8 6 5 4 4 2 2 2 3 3 3 3 3 3 3 2 3 2 2 1 1 1 1 2 2 3 5 5 4 3 3 2 3 3
Wind_Direction
157 162 147 141 136 131 128 125 119 113 111 108 105 103 101 99 98 97 97 96 96 95 92 92 91 87 85 85 85 86 86 84 83 79 78 81 85 89 89 87 86 81 84
150 153 144 141 136 132 128 125 121 116 114 111 108 106 104 103 103 101 99 99 98 97 95 92 92 90 87 86 86 87 87 85 82 76 71 72 83 91 93 89 88 85 84
142 147 143 140 137 132 128 126 123 120 117 114 111 109 108 107 107 105 103 102 99 96 94 93 91 89 88 87 86 84 84 80 75 70 69 55 73 91 94 92 90 86 82
141 143 143 140 136 132 129 128 125 122 120 117 114 112 109 107 106 108 107 104 101 97 93 90 89 88 86 88 85 82 77 73 69 69 66 53 53 94 94 91 87 83 82
137 140 144 140 138 134 131 130 128 125 122 120 119 116 113 110 108 108 110 106 103 99 96 92 89 88 88 85 81 77 71 65 64 67 70 58 45 87 92 88 85 84 81
134 137 145 141 140 136 134 133 132 129 127 125 122 119 117 114 111 109 108 106 106 104 101 96 91 89 91 86 81 76 68 64 65 65 67 60 50 76 83 87 86 83 78
138 140 146 142 141 139 137 136 134 133 131 129 126 124 122 119 115 114 112 110 110 111 107 102 94 89 87 84 82 77 67 62 73 67 57 45 52 78 79 78 87 81 77
143 142 146 142 141 140 140 139 137 136 135 133 132 129 128 126 122 120 119 116 113 113 111 107 100 97 90 84 78 71 64 61 69 66 58 31 51 80 81 73 66 62 65
139 138 140 145 143 141 140 140 139 137 137 136 135 133 130 127 126 125 121 120 117 116 117 111 103 98 98 85 68 57 56 62 69 60 59 12 47 75 82 73 54 34 21
137 142 142 140 140 142 144 142 141 140 138 138 136 133 130 128 128 126 124 124 122 119 117 114 104 95 90 73 58 49 47 55 58 41 276 257 11 86 80 69 34 17 357
145 152 150 148 146 144 145 147 144 142 141 140 140 137 131 130 129 129 127 126 126 123 120 114 106 92 69 43 31 28 32 44 24 283 247 272 251 267 294 357 353 343 329
164 167 162 160 157 151 153 144 144 144 144 141 141 144 138 138 137 133 135 137 134 129 125 113 103 71 51 13 354 12 21 333 313 276 272 275 265 281 291 315 322 321 320
169 168 170 169 163 159 155 149 150 146 143 147 151 151 143 138 130 121 120 123 125 107 86 57 44 33 32 352 332 333 317 316 296 286 286 281 279 288 299 300 301 298 301
166 173 172 170 166 165 159 158 159 157 156 162 168 159 147 142 139 140 138 139 125 121 111 61 45 8 354 330 319 325 326 306 278 282 288 303 314 316 316 310 305 297 294
168 173 173 168 167 167 161 164 163 168 167 167 164 165 157 153 157 153 154 149 146 126 125 110 76 39 10 351 344 341 331 323 314 323 326 332 333 325 318 316 315 309 304
176 175 174 171 170 165 167 169 170 169 163 161 164 165 158 153 154 154 150 145 144 144 143 137 136 120 348 350 343 337 333 333 341 335 331 336 342 337 330 328 326 320 315
178 173 172 173 169 166 167 170 166 165 159 163 168 164 159 153 152 150 146 145 160 147 126 110 95 72 39 12 348 337 343 341 352 336 336 337 332 338 336 329 327 325 321
170 170 172 168 165 168 167 164 162 161 159 164 165 161 160 157 151 146 145 153 154 132 121 111 84 64 35 16 349 334 338 339 333 327 340 334 325 325 327 334 331 327 322
172 167 166 163 165 168 165 160 154 153 157 160 156 155 160 159 155 148 152 157 146 127 117 110 77 82 44 5 345 346 343 332 311 333 352 336 323 324 322 334 337 336 332
172 165 164 164 166 162 155 142 136 138 155 154 158 162 158 158 153 148 146 148 141 124 114 107 96 73 72 14 3 357 332 316 320 350 345 335 334 336 337 338 335 335 338
166 166 167 165 169 160 159 160 162 174 176 171 171 167 162 157 154 149 147 142 141 141 148 139 120 83 42 34 47 356 336 338 345 339 347 355 349 342 346 345 340 331 327
174 177 175 172 173 173 173 174 173 169 171 175 166 160 163 162 163 157 153 157 153 140 130 133 123 118 63 51 96 54 347 338 337 333 322 327 326 342 346 339 333 325 319
181 183 181 179 175 173 165 148 132 110 93 107 145 171 176 168 168 164 164 159 157 153 160 165 154 144 153 7 87 136 149 253 300 304 302 311 325 335 323 321 320 318 321
190 184 177 177 174 170 163 160 159 164 172 187 180 176 171 168 167 168 164 160 160 161 161 171 167 160 147 168 334 123 174 187 222 300 313 315 312 306 306 313 317 316 317
181 176 173 170 171 170 167 167 165 165 170 163 150 151 156 162 166 169 167 161 163 166 172 167 163 161 165 171 181 201 301 337 217 236 289 306 309 288 288 290 299 309 313
167 167 165 164 173 171 167 168 169 168 164 157 160 166 169 162 160 166 162 160 163 165 172 173 168 167 175 170 180 184 192 207 231 236 270 291 297 294 292 288 289 297 303